H1 CPF 2 NER 2024 2 5 9 036 01 glonass137 H2 1705501 9137 42939 2024 2 5 0 0 0 2024 2 8 23 45 0 900 1 1 0 0 0 1 H9 10 0 60345 0.00000 0 8964791.132 -13093228.203 -19962093.337 10 0 60345 900.00000 0 9146883.779 -10550727.066 -21338781.695 10 0 60345 1800.00000 0 9532584.583 -7885606.187 -22300735.818 10 0 60345 2700.00000 0 10127750.627 -5165435.799 -22829322.201 10 0 60345 3600.00000 0 10926133.219 -2458579.660 -22914333.387 10 0 60345 4500.00000 0 11909541.277 168421.940 -22554181.007 10 0 60345 5400.00000 0 13048523.878 2653384.416 -21755921.705 10 0 60345 6300.00000 0 14303543.487 4940822.018 -20535115.840 10 0 60345 7200.00000 0 15626590.772 6984005.449 -18915521.952 10 0 60345 8100.00000 0 16963173.480 8746649.621 -16928632.985 10 0 60345 9000.00000 0 18254596.146 10204162.676 -14613063.215 10 0 60345 9900.00000 0 19440435.136 11344405.601 -12013797.660 10 0 60345 10800.00000 0 20461105.293 12167932.264 -9181318.362 10 0 60345 11700.00000 0 21260410.497 12687701.314 -6170624.333 10 0 60345 12600.00000 0 21787970.943 12928273.459 -3040164.143 10 0 60345 13500.00000 0 22001425.074 12924529.168 149298.159 10 0 60345 14400.00000 0 21868313.450 12719961.905 3335861.721 10 0 60345 15300.00000 0 21367565.070 12364619.737 6457689.156 10 0 60345 16200.00000 0 20490523.389 11912782.901 9454204.981 10 0 60345 17100.00000 0 19241468.482 11420475.841 12267268.951 10 0 60345 18000.00000 0 17637612.925 10942919.079 14842301.483 10 0 60345 18900.00000 0 15708570.947 10532028.620 17129339.535 10 0 60345 19800.00000 0 13495322.312 10234068.479 19084002.716 10 0 60345 20700.00000 0 11048713.403 10087555.282 20668351.280 10 0 60345 21600.00000 0 8427557.122 10121503.286 21851619.811 10 0 60345 22500.00000 0 5696409.692 10354083.806 22610812.864 10 0 60345 23400.00000 0 2923115.857 10791755.697 22931151.341 10 0 60345 24300.00000 0 176223.366 11428903.899 22806361.224 10 0 60345 25200.00000 0 -2477626.938 12248001.869 22238799.069 10 0 60345 26100.00000 0 -4976228.032 13220291.885 21239411.621 10 0 60345 27000.00000 0 -7264146.610 14306955.583 19827529.894 10 0 60345 27900.00000 0 -9294779.559 15460726.526 18030501.049 10 0 60345 28800.00000 0 -11032042.099 16627877.937 15883164.462 10 0 60345 29700.00000 0 -12451617.885 17750502.793 13427181.356 10 0 60345 30600.00000 0 -13541719.452 18768990.815 10710230.236 10 0 60345 31500.00000 0 -14303327.712 19624598.291 7785083.260 10 0 60345 32400.00000 0 -14749901.062 20262002.265 4708581.120 10 0 60345 33300.00000 0 -14906566.961 20631730.983 1540526.353 10 0 60345 34200.00000 0 -14808830.770 20692367.295 -1657483.124 10 0 60345 35100.00000 0 -14500857.107 20412431.150 -4823257.035 10 0 60345 36000.00000 0 -14033397.242 19771860.705 -7895228.227 10 0 60345 36900.00000 0 -13461451.078 18763028.571 -10813656.116 10 0 60345 37800.00000 0 -12841763.565 17391249.360 -13521793.908 10 0 60345 38700.00000 0 -12230262.317 15674756.328 -15966996.257 10 0 60345 39600.00000 0 -11679545.570 13644147.386 -18101745.275 10 0 60345 40500.00000 0 -11236527.227 11341323.128 -19884574.787 10 0 60345 41400.00000 0 -10940338.854 8817960.910 -21280874.900 10 0 60345 42300.00000 0 -10820577.345 6133588.401 -22263561.498 10 0 60345 43200.00000 0 -10895972.159 3353336.629 -22813598.164 10 0 60345 44100.00000 0 -11173528.114 545465.724 -22920360.930 10 0 60345 45000.00000 0 -11648179.644 -2221234.135 -22581839.370 10 0 60345 45900.00000 0 -12302970.808 -4880059.150 -21804670.654 10 0 60345 46800.00000 0 -13109753.291 -7368917.787 -20604006.309 10 0 60345 47700.00000 0 -14030372.902 -9632662.029 -19003214.532 10 0 60345 48600.00000 0 -15018294.627 -11625128.203 -17033423.919 10 0 60345 49500.00000 0 -16020597.916 -13310803.677 -14732917.405 10 0 60345 50400.00000 0 -16980258.329 -14666051.279 -12146388.087 10 0 60345 51300.00000 0 -17838619.609 -15679841.752 -9324071.152 10 0 60345 52200.00000 0 -18537952.187 -16353965.001 -6320768.641 10 0 60345 53100.00000 0 -19023990.343 -16702712.673 -3194785.873 10 0 60345 54000.00000 0 -19248341.134 -16752046.661 -6800.166 10 0 60345 54900.00000 0 -19170663.389 -16538289.652 3181316.148 10 0 60345 55800.00000 0 -18760524.771 -16106393.810 6307695.432 10 0 60345 56700.00000 0 -17998858.314 -15507861.330 9311673.774 10 0 60345 57600.00000 0 -16878956.666 -14798405.090 12134966.057 10 0 60345 58500.00000 0 -15406961.634 -14035448.425 14722794.203 10 0 60345 59400.00000 0 -13601827.730 -13275569.599 17024946.912 10 0 60345 60300.00000 0 -11494760.342 -12571998.686 18996750.592 10 0 60345 61200.00000 0 -9128151.050 -11972272.197 20599933.035 10 0 60345 62100.00000 0 -6554053.398 -11516144.021 21803363.540 10 0 60345 63000.00000 0 -3832261.464 -11233840.382 22583655.599 10 0 60345 63900.00000 0 -1028069.976 -11144732.124 22925620.828 10 0 60345 64800.00000 0 1790192.174 -11256480.115 22822565.594 10 0 60345 65700.00000 0 4553753.799 -11564689.920 22276424.602 10 0 60345 66600.00000 0 7196012.121 -12053090.586 21297728.662 10 0 60345 67500.00000 0 9655054.945 -12694230.588 19905406.809 10 0 60345 68400.00000 0 11875990.358 -13450662.281 18126425.979 10 0 60345 69300.00000 0 13812987.739 -14276565.730 15995274.479 10 0 60345 70200.00000 0 15430945.666 -15119744.109 13553298.465 10 0 60345 71100.00000 0 16706717.600 -15923907.090 10847903.569 10 0 60345 72000.00000 0 17629844.506 -16631146.095 7931636.642 10 0 60345 72900.00000 0 18202764.182 -17184496.916 4861165.122 10 0 60345 73800.00000 0 18440488.952 -17530481.084 1696173.802 10 0 60345 74700.00000 0 18369765.876 -17621517.960 -1501799.253 10 0 60345 75600.00000 0 18027755.513 -17418104.740 -4670564.494 10 0 60345 76500.00000 0 17460285.751 -16890671.188 -7748496.333 10 0 60345 77400.00000 0 16719755.297 -16021029.663 -10675737.740 10 0 60345 78300.00000 0 15862776.254 -14803358.105 -13395369.799 10 0 60345 79200.00000 0 14947656.252 -13244673.487 -15854522.794 10 0 60345 80100.00000 0 14031827.217 -11364774.863 -18005406.715 10 0 60345 81000.00000 0 13169329.932 -9195657.580 -19806240.912 10 0 60345 81900.00000 0 12408460.852 -6780422.503 -21222064.878 10 0 60345 82800.00000 0 11789680.535 -4171725.295 -22225414.636 10 0 60345 83700.00000 0 11343871.653 -1429830.006 -22796852.086 10 0 60345 84600.00000 0 11091019.587 1379652.450 -22925337.563 10 0 60345 85500.00000 0 11039370.655 4188247.305 -22608438.984 10 0 60346 0.00000 0 11185102.758 6927217.534 -21852374.129 10 0 60346 900.00000 0 11512521.849 9530178.126 -20671885.173 10 0 60346 1800.00000 0 11994775.164 11935611.531 -19089949.278 10 0 60346 2700.00000 0 12595051.034 14089185.552 -17137329.598 10 0 60346 3600.00000 0 13268214.276 15945774.625 -14851976.308 10 0 60346 4500.00000 0 13962808.121 17471102.898 -12278288.821 10 0 60346 5400.00000 0 14623338.164 18642941.539 -9466253.401 10 0 60346 6300.00000 0 15192741.957 19451811.492 -6470472.739 10 0 60346 7200.00000 0 15614939.996 19901163.466 -3349106.270 10 0 60346 8100.00000 0 15837360.349 20007028.834 -162741.751 10 0 60346 9000.00000 0 15813330.246 19797157.149 3026779.943 10 0 60346 9900.00000 0 15504233.449 19309677.535 6157563.881 10 0 60346 10800.00000 0 14881342.061 18591341.032 9168860.634 10 0 60346 11700.00000 0 13927245.080 17695418.508 12002242.983 10 0 60346 12600.00000 0 12636812.927 16679343.049 14602736.957 10 0 60346 13500.00000 0 11017656.581 15602196.277 16919885.404 10 0 60346 14400.00000 0 9090061.109 14522144.371 18908723.729 10 0 60346 15300.00000 0 6886395.250 13493931.528 20530649.241 10 0 60346 16200.00000 0 4450020.511 12566535.891 21754167.693 10 0 60346 17100.00000 0 1833743.925 11781086.138 22555503.005 10 0 60346 18000.00000 0 -902122.433 11169125.812 22919058.710 10 0 60346 18900.00000 0 -3692015.838 10751298.007 22837722.419 10 0 60346 19800.00000 0 -6467598.921 10536505.374 22313007.466 10 0 60346 20700.00000 0 -9160355.610 10521580.700 21355028.768 10 0 60346 21600.00000 0 -11704200.334 10691481.968 19982312.966 10 0 60346 22500.00000 0 -14037992.975 11020003.934 18221445.884 10 0 60346 23400.00000 0 -16107855.682 11470976.612 16106563.415 10 0 60346 24300.00000 0 -17869195.613 11999900.509 13678694.906 10 0 60346 25200.00000 0 -19288349.631 12555949.974 10984971.029 10 0 60346 26100.00000 0 -20343782.504 13084260.221 8077710.992 10 0 60346 27000.00000 0 -21026788.670 13528401.334 5013406.449 10 0 60346 27900.00000 0 -21341668.432 13832934.346 1851621.801 10 0 60346 28800.00000 0 -21305371.446 13945940.636 -1346167.469 10 0 60346 29700.00000 0 -20946623.024 13821416.821 -4517775.326 10 0 60346 30600.00000 0 -20304570.589 13421432.765 -7601520.560 10 0 60346 31500.00000 0 -19427008.080 12717960.308 -10537432.509 10 0 60346 32400.00000 0 -18368253.992 11694294.260 -13268422.884 10 0 60346 33300.00000 0 -17186773.341 10346004.509 -15741400.254 10 0 60346 34200.00000 0 -15942644.632 8681378.018 -17908304.947 10 0 60346 35100.00000 0 -14694979.157 6721331.142 -19727044.059 10 0 60346 36000.00000 0 -13499401.745 4498795.024 -21162308.389 10 0 60346 36900.00000 0 -12405699.130 2057599.070 -22186255.688 10 0 60346 37800.00000 0 -11455734.686 -549101.522 -22779047.385 10 0 60346 38700.00000 0 -10681716.766 -3260789.225 -22929228.954 10 0 60346 39600.00000 0 -10104892.751 -6011857.419 -22633947.096 10 0 60346 40500.00000 0 -9734722.851 -8734099.428 -21899000.064 10 0 60346 41400.00000 0 -9568567.459 -11359310.567 -20738720.593 10 0 60346 42300.00000 0 -9591900.280 -13821895.714 -19175693.954 10 0 60346 43200.00000 0 -9779037.419 -16061374.801 -17240316.749 10 0 60346 44100.00000 0 -10094351.002 -18024682.875 -14970204.951 10 0 60346 45000.00000 0 -10493915.600 -19668169.835 -12409462.582 10 0 60346 45900.00000 0 -10927517.612 -20959217.463 -9607825.057 10 0 60346 46800.00000 0 -11340942.462 -21877407.244 -6619693.639 10 0 60346 47700.00000 0 -11678442.812 -22415191.121 -3503079.676 10 0 60346 48600.00000 0 -11885283.308 -22578038.098 -318479.071 10 0 60346 49500.00000 0 -11910254.133 -22384051.490 2872301.144 10 0 60346 50400.00000 0 -11708046.914 -21863073.719 6007341.227 10 0 60346 51300.00000 0 -11241392.309 -21055317.014 9025808.777 10 0 60346 52200.00000 0 -10482868.585 -20009578.144 11869137.091 10 0 60346 53100.00000 0 -9416304.384 -18781112.657 14482158.934 10 0 60346 54000.00000 0 -8037715.823 -17429258.167 16814173.885 10 0 60346 54900.00000 0 -6355737.629 -16014906.582 18819928.811 10 0 60346 55800.00000 0 -4391529.088 -14597931.231 20460492.813 10 0 60346 56700.00000 0 -2178157.476 -13234676.555 21704010.124 10 0 60346 57600.00000 0 240516.673 -11975615.148 22526316.820 10 0 60346 58500.00000 0 2811407.464 -10863269.889 22911409.735 10 0 60346 59400.00000 0 5474160.886 -9930487.665 22851758.779 10 0 60346 60300.00000 0 8163421.488 -9199136.559 22348456.615 10 0 60346 61200.00000 0 10811315.587 -8679280.702 21411202.630 10 0 60346 62100.00000 0 13350049.000 -8368867.110 20058121.098 10 0 60346 63000.00000 0 15714512.326 -8253937.488 18315416.418 10 0 60346 63900.00000 0 17844786.088 -8309356.046 16216871.400 10 0 60346 64800.00000 0 19688441.956 -8500022.706 13803197.534 10 0 60346 65700.00000 0 21202544.364 -8782520.583 11121249.083 10 0 60346 66600.00000 0 22355269.023 -9107128.163 8223115.737 10 0 60346 67500.00000 0 23127070.682 -9420110.979 5165111.079 10 0 60346 68400.00000 0 23511351.152 -9666195.504 2006676.435 10 0 60346 69300.00000 0 23514599.673 -9791119.955 -1190778.282 10 0 60346 70200.00000 0 23155999.848 -9744153.201 -4365073.757 10 0 60346 71100.00000 0 22466520.043 -9480474.151 -7454476.471 10 0 60346 72000.00000 0 21487526.012 -8963309.755 -10398905.412 10 0 60346 72900.00000 0 20268974.787 -8165740.008 -13141106.100 10 0 60346 73800.00000 0 18867266.597 -7072092.455 -15627768.365 10 0 60346 74700.00000 0 17342845.923 -5678866.225 -17810565.614 10 0 60346 75600.00000 0 15757653.247 -3995145.537 -19647095.146 10 0 60346 76500.00000 0 14172535.057 -2042484.337 -21101701.225 10 0 60346 77400.00000 0 12644721.102 145734.030 -22146165.149 10 0 60346 78300.00000 0 11225474.716 2525436.065 -22760249.357 10 0 60346 79200.00000 0 9958014.352 5043449.448 -22932085.565 10 0 60346 80100.00000 0 8875792.815 7639480.726 -22658399.963 10 0 60346 81000.00000 0 8001205.386 10248397.598 -21944571.684 10 0 60346 81900.00000 0 7344779.914 12802721.504 -20804523.795 10 0 60346 82800.00000 0 6904881.646 15235227.395 -19260449.250 10 0 60346 83700.00000 0 6667944.007 17481543.255 -17342377.220 10 0 60346 84600.00000 0 6609214.463 19482641.844 -15087588.222 10 0 60346 85500.00000 0 6693983.125 21187121.627 -12539889.255 10 0 60347 0.00000 0 6879241.429 22553182.370 -9748763.148 10 0 60347 900.00000 0 7115700.406 23550214.419 -6768406.890 10 0 60347 1800.00000 0 7350082.513 24159934.172 -3656681.346 10 0 60347 2700.00000 0 7527590.136 24377021.453 -473987.683 10 0 60347 3600.00000 0 7594445.839 24209230.881 2717903.949 10 0 60347 4500.00000 0 7500396.743 23676974.012 5857052.097 10 0 60347 5400.00000 0 7201076.822 22812390.262 8882544.476 10 0 60347 6300.00000 0 6660126.912 21657946.066 11735677.888 10 0 60347 7200.00000 0 5850982.439 20264621.428 14361094.666 10 0 60347 8100.00000 0 4758252.850 18689760.138 16707853.751 10 0 60347 9000.00000 0 3378633.823 16994673.807 18730415.885 10 0 60347 9900.00000 0 1721312.922 15242100.014 20389524.130 10 0 60347 10800.00000 0 -192149.532 13493620.642 21652963.101 10 0 60347 11700.00000 0 -2328460.780 11807147.989 22496182.637 10 0 60347 12600.00000 0 -4643731.861 10234583.214 22902774.158 10 0 60347 13500.00000 0 -7085063.917 8819744.379 22864790.776 10 0 60347 14400.00000 0 -9592520.049 7596650.045 22382904.971 10 0 60347 15300.00000 0 -12101402.061 6588229.574 21466400.630 10 0 60347 16200.00000 0 -14544738.666 5805513.568 20132999.187 10 0 60347 17100.00000 0 -16855882.704 5247337.849 18408522.649 10 0 60347 18000.00000 0 -18971110.012 4900573.051 16326399.294 10 0 60347 18900.00000 0 -20832112.210 4740869.832 13927020.860 10 0 60347 19800.00000 0 -22388279.640 4733888.105 11256962.947 10 0 60347 20700.00000 0 -23598679.123 4836958.158 8368083.183 10 0 60347 21600.00000 0 -24433643.629 5001103.196 5316514.342 10 0 60347 22500.00000 0 -24875907.043 5173337.335 2161571.836 10 0 60347 23400.00000 0 -24921236.168 5299141.150 -1035402.891 10 0 60347 24300.00000 0 -24578533.300 5325009.161 -4212240.155 10 0 60347 25200.00000 0 -23869405.019 5200960.385 -7307156.998 10 0 60347 26100.00000 0 -22827215.560 4882904.513 -10259964.902 10 0 60347 27000.00000 0 -21495664.885 4334762.402 -13013245.940 10 0 60347 27900.00000 0 -19926951.772 3530249.992 -15513473.816 10 0 60347 28800.00000 0 -18179599.708 2454249.146 -17712057.429 10 0 60347 29700.00000 0 -16316037.441 1103706.481 -19566286.410 10 0 60347 30600.00000 0 -14400036.178 -511978.645 -21040160.268 10 0 60347 31500.00000 0 -12494111.145 -2371094.238 -22105085.229 10 0 60347 32400.00000 0 -10656996.328 -4440278.804 -22740425.678 10 0 60347 33300.00000 0 -8941297.778 -6675680.556 -22933900.066 10 0 60347 34200.00000 0 -7391423.039 -9024564.933 -22681814.140 10 0 60347 35100.00000 0 -6041872.398 -11427304.007 -21989127.560 10 0 60347 36000.00000 0 -4915962.235 -13819665.505 -20869353.012 10 0 60347 36900.00000 0 -4025032.635 -16135306.653 -19344290.076 10 0 60347 37800.00000 0 -3368171.006 -18308369.560 -17443599.161 10 0 60347 38700.00000 0 -2932461.897 -20276070.609 -15204223.747 10 0 60347 39600.00000 0 -2693751.165 -21981176.430 -12669672.053 10 0 60347 40500.00000 0 -2617891.168 -23374263.744 -9889171.901 10 0 60347 41400.00000 0 -2662413.489 -24415669.200 -6916715.029 10 0 60347 42300.00000 0 -2778557.790 -25077048.229 -3810009.277 10 0 60347 43200.00000 0 -2913570.442 -25342478.133 -629358.977 10 0 60347 44100.00000 0 -3013175.277 -25209059.711 2563504.757 10 0 60347 45000.00000 0 -3024111.547 -24686992.585 5706620.972 10 0 60347 45900.00000 0 -2896631.394 -23799121.478 8738999.767 10 0 60347 46800.00000 0 -2586850.898 -22579972.746 11601803.760 10 0 60347 47700.00000 0 -2058854.934 -21074321.767 14239487.186 10 0 60347 48600.00000 0 -1286466.508 -19335351.322 16600870.660 10 0 60347 49500.00000 0 -254605.312 -17422478.007 18640131.010 10 0 60347 50400.00000 0 1039822.503 -15398937.450 20317687.319 10 0 60347 51300.00000 0 2587541.741 -13329228.898 21600966.421 10 0 60347 52200.00000 0 4367050.083 -11276525.402 22465033.478 10 0 60347 53100.00000 0 6345279.899 -9300157.106 22893075.757 10 0 60347 54000.00000 0 8478753.847 -7453271.907 22876730.506 10 0 60347 54900.00000 0 10715187.538 -5780770.315 22416250.634 10 0 60347 55800.00000 0 12995473.941 -4317599.947 21520504.814 10 0 60347 56700.00000 0 15255968.167 -3087480.113 20206811.629 10 0 60347 57600.00000 0 17430978.608 -2102109.131 18500610.373 10 0 60347 58500.00000 0 19455361.444 -1360886.939 16434974.168 10 0 60347 59400.00000 0 21267110.854 -851164.094 14049974.064 10 0 60347 60300.00000 0 22809837.090 -549006.166 11391905.715 10 0 60347 61200.00000 0 24035028.727 -420440.898 8512393.064 10 0 60347 62100.00000 0 24904004.178 -423134.987 5467386.088 10 0 60347 63000.00000 0 25389470.257 -508429.094 2316071.957 10 0 60347 63900.00000 0 25476621.914 -623644.314 -880278.985 10 0 60347 64800.00000 0 25163736.505 -714561.643 -4059509.529 10 0 60347 65700.00000 0 24462237.303 -727968.465 -7159790.259 10 0 60347 66600.00000 0 23396223.388 -614163.147 -10120828.143 10 0 60347 67500.00000 0 22001485.710 -329310.534 -12885044.731 10 0 60347 68400.00000 0 20324050.858 162452.453 -15398700.369 10 0 60347 69300.00000 0 18418314.014 887251.265 -17612942.012 10 0 60347 70200.00000 0 16344839.818 1860123.791 -19484753.967 10 0 60347 71100.00000 0 14167923.645 3084143.915 -20977793.098 10 0 60347 72000.00000 0 11953015.650 4550056.317 -22063092.426 10 0 60347 72900.00000 0 9764115.336 6236438.629 -22719619.904 10 0 60347 73800.00000 0 7661245.256 8110384.874 -22934682.057 10 0 60347 74700.00000 0 5698108.822 10128682.230 -22704165.223 10 0 60347 75600.00000 0 3920029.165 12239432.494 -22032610.276 10 0 60347 76500.00000 0 2362253.926 14384051.160 -20933119.823 10 0 60347 77400.00000 0 1048695.500 16499561.172 -19427099.974 10 0 60347 78300.00000 0 -8842.153 18521086.177 -17543841.863 10 0 60347 79200.00000 0 -810919.309 20384439.742 -15319950.999 10 0 60347 80100.00000 0 -1370189.738 22028702.872 -12798635.465 10 0 60347 81000.00000 0 -1710616.245 23398682.572 -10028866.590 10 0 60347 81900.00000 0 -1866206.810 24447149.059 -7064428.221 10 0 60347 82800.00000 0 -1879325.709 25136758.292 -3962872.957 10 0 60347 83700.00000 0 -1798651.785 25441579.629 -784405.540 10 0 60347 84600.00000 0 -1676870.852 25348164.794 2409284.907 10 0 60347 85500.00000 0 -1568200.352 24856113.545 5556221.029 10 0 60348 0.00000 0 -1525851.351 23978112.537 8595338.197 10 0 60348 900.00000 0 -1599535.593 22739445.299 11467668.528 10 0 60348 1800.00000 0 -1833123.353 21176995.094 14117480.926 10 0 60348 2700.00000 0 -2262551.284 19337780.793 16493360.574 10 0 60348 3600.00000 0 -2914069.117 17277087.852 18549203.097 10 0 60348 4500.00000 0 -3802899.609 15056271.855 20245106.067 10 0 60348 5400.00000 0 -4932368.943 12740325.873 21548140.746 10 0 60348 6300.00000 0 -6293545.051 10395312.566 22432989.508 10 0 60348 7200.00000 0 -7865400.221 8085767.356 22882436.988 10 0 60348 8100.00000 0 -9615492.457 5872180.056 22887705.678 10 0 60348 9000.00000 0 -11501138.568 3808658.992 22448629.551 10 0 60348 9900.00000 0 -13471031.342 1940874.072 21573662.200 10 0 60348 10800.00000 0 -15467234.676 304363.671 20279718.941 10 0 60348 11700.00000 0 -17427474.574 -1076724.834 18591855.397 10 0 60348 12600.00000 0 -19287631.259 -2190409.025 16542788.043 10 0 60348 13500.00000 0 -20984328.993 -3037128.188 14172265.271 10 0 60348 14400.00000 0 -22457515.614 -3629472.760 11526300.408 10 0 60348 15300.00000 0 -23652923.821 -3991398.458 8656281.004 10 0 60348 16200.00000 0 -24524310.789 -4156958.823 5617971.305 10 0 60348 17100.00000 0 -25035381.659 -4168610.342 2470427.165 10 0 60348 18000.00000 0 -25161315.456 -4075162.484 -725155.302 10 0 60348 18900.00000 0 -24889828.634 -3929460.250 -3906634.489 10 0 60348 19800.00000 0 -24221730.888 -3785898.256 -7012137.613 10 0 60348 20700.00000 0 -23170949.339 -3697872.696 -9981270.132 10 0 60348 21600.00000 0 -21764019.734 -3715280.137 -12756295.957 10 0 60348 22500.00000 0 -20039065.873 -3882170.124 -15283264.799 10 0 60348 23400.00000 0 -18044310.150 -4234651.898 -17513064.144 10 0 60348 24300.00000 0 -15836177.790 -4799144.641 -19402375.141 10 0 60348 25200.00000 0 -13477074.339 -5591045.910 -20914513.770 10 0 60348 26100.00000 0 -11032929.535 -6613875.123 -22020141.144 10 0 60348 27000.00000 0 -8570610.132 -7858928.751 -22697829.569 10 0 60348 27900.00000 0 -6155309.449 -9305462.288 -22934473.921 10 0 60348 28800.00000 0 -3848022.020 -10921391.864 -22725540.903 10 0 60348 29700.00000 0 -1703207.865 -12664486.591 -22075151.939 10 0 60348 30600.00000 0 233257.330 -14484002.218 -20995998.514 10 0 60348 31500.00000 0 1925761.890 -16322688.173 -19509091.906 10 0 60348 32400.00000 0 3350199.092 -18119084.552 -17643352.345 10 0 60348 33300.00000 0 4494719.112 -19810013.366 -15435045.542 10 0 60348 34200.00000 0 5359962.146 -21333160.259 -12927077.446 10 0 60348 35100.00000 0 5958764.531 -22629638.939 -10168160.766 10 0 60348 36000.00000 0 6315351.743 -23646431.235 -7211869.237 10 0 60348 36900.00000 0 6464053.525 -24338600.699 -4115597.919 10 0 60348 37800.00000 0 6447596.464 -24671187.089 -939449.624 10 0 60348 38700.00000 0 6315046.987 -24620702.290 2254930.891 10 0 60348 39600.00000 0 6119492.400 -24176164.910 5405552.251 10 0 60348 40500.00000 0 5915558.529 -23339630.051 8451277.996 10 0 60348 41400.00000 0 5756869.318 -22126191.864 11333010.967 10 0 60348 42300.00000 0 5693556.075 -20563458.578 13994837.532 10 0 60348 43200.00000 0 5769921.850 -18690521.657 16385109.553 10 0 60348 44100.00000 0 6022359.829 -16556461.807 18457443.371 10 0 60348 45000.00000 0 6477613.860 -14218453.739 20171616.735 10 0 60348 45900.00000 0 7151454.853 -11739548.195 21494346.708 10 0 60348 46800.00000 0 8047829.374 -9186222.915 22399933.938 10 0 60348 47700.00000 0 9158517.013 -6625803.763 22870761.130 10 0 60348 48600.00000 0 10463311.929 -4123862.418 22897636.373 10 0 60348 49500.00000 0 11930722.139 -1741697.928 22479974.727 10 0 60348 50400.00000 0 13519158.496 465994.008 21625814.405 10 0 60348 51300.00000 0 15178564.888 2453167.991 20351666.895 10 0 60348 52200.00000 0 16852422.625 4184107.704 18682203.331 10 0 60348 53100.00000 0 18480046.110 5634667.318 16649782.503 10 0 60348 54000.00000 0 19999074.463 6793024.425 14293828.891 10 0 60348 54900.00000 0 21348055.109 7659913.703 11660072.031 10 0 60348 55800.00000 0 22469011.098 8248332.181 8799661.403 10 0 60348 56700.00000 0 23309884.173 8582729.195 5768173.628 10 0 60348 57600.00000 0 23826750.422 8697715.885 2624531.145 10 0 60348 58500.00000 0 23985714.638 8636349.444 -570146.440 10 0 60348 59400.00000 0 23764402.843 8448065.507 -3753735.523 10 0 60348 60300.00000 0 23152989.303 8186347.050 -6864322.418 10 0 60348 61200.00000 0 22154713.997 7906229.477 -9841413.520 10 0 60348 62100.00000 0 20785868.130 7661748.548 -12627117.466 10 0 60348 63000.00000 0 19075247.736 7503440.164 -15167275.550 10 0 60348 63900.00000 0 17063098.057 7475998.745 -17412517.854 10 0 60348 64800.00000 0 14799592.733 7616194.001 -19319224.243 10 0 60348 65700.00000 0 12342911.423 7951134.797 -20850371.536 10 0 60348 66600.00000 0 9756996.206 8496953.856 -21976250.502 10 0 60348 67500.00000 0 7109080.317 9257969.205 -22675039.207 10 0 60348 68400.00000 0 4467092.017 10226357.930 -22933222.106 10 0 60348 69300.00000 0 1897041.378 11382356.268 -22745847.284 10 0 60348 70200.00000 0 -539501.916 12694977.868 -22116617.455 10 0 60348 71100.00000 0 -2787735.683 14123220.365 -21057813.386 10 0 60348 72000.00000 0 -4801661.487 15617709.950 -19590051.560 10 0 60348 72900.00000 0 -6545746.571 17122715.285 -17741880.942 10 0 60348 73800.00000 0 -7996143.663 18578446.688 -15549226.670 10 0 60348 74700.00000 0 -9141419.289 19923544.464 -13054691.401 10 0 60348 75600.00000 0 -9982761.764 21097652.278 -10306727.694 10 0 60348 76500.00000 0 -10533661.705 22043967.827 -7358697.311 10 0 60348 77400.00000 0 -10819079.936 22711663.809 -4267835.620 10 0 60348 78300.00000 0 -10874139.098 23058077.571 -1094141.092 10 0 60348 79200.00000 0 -10742395.200 23050577.398 2100788.506 10 0 60348 80100.00000 0 -10473762.898 22668026.842 5254950.567 10 0 60348 81000.00000 0 -10122182.822 21901785.368 8307139.439 10 0 60348 81900.00000 0 -9743129.939 20756202.964 11198132.214 10 0 60348 82800.00000 0 -9391068.576 19248587.516 13871835.419 10 0 60348 83700.00000 0 -9116961.783 17408645.830 16276370.517 10 0 60348 84600.00000 0 -8965940.303 15277421.042 18365077.376 10 0 60348 85500.00000 0 -8975229.598 12905770.140 20097416.538 99